Find Starlink 35335

NORAD ID: 66180 Int'l Des: 2025-243 Owner: SPXS Country: US Constellation: starlink operational
LEOCIRCULAR

当前视图

正在加载3D地球...

About Starlink 35335

Starlink 35335 (NORAD 66180) is a starlink constellation satellite (v2 mini) launched Oct 26, 2025 by SPXS of US. It operates in LEO, CIRCULAR orbit with a mass of 575.00 kg.

即将过境

Passes for default location (London). Set your location on the main map for personalized predictions.

高度历史

Loading altitude history...

两行轨道根数

1 66180U 25243D 26264.13954975 .00009517 00000-0 29248-3 0 9990
2 66180 53.1593 54.8833 0000669 94.1181 265.9898 15.34395673 50610
Epoch: Sep 21, 2026 • Age: 14 hours

当前状态

高度 463.0 km
远地点 / 近地点 N/A
速度 7.64 km/s
星下点 20.39°N, 164.65°E
发射日期 Oct 26, 2025
运行时间 0.9 years
类型 internet

技术详情

分类 Payload
质量 575.00 kg
干质量 530.00 kg
长度 0.30 m
跨度 29.00 m
形状 ? Box + pan
制造商 SPXS
平台类型 Starlink V2MO
阶段状态 In Orbit
所有者/国家 SPXS/US

Most Searched